TimeCDT,TemperatureF,Dew PointF,Humidity,Sea Level PressureIn,VisibilityMPH,Wind Direction,Wind SpeedMPH,Gust SpeedMPH,PrecipitationIn,Events,Conditions,WindDirDegrees,DateUTC
12:58 AM,50.2,39.0,66,30.18,10.0,SSW,3.5,-,N/A,,Mostly Cloudy,210,2013-05-13 05:58:00
1:58 AM,47.5,42.3,82,30.17,10.0,South,2.3,-,N/A,,Clear,170,2013-05-13 06:58:00
2:58 AM,45.3,42.3,89,30.17,10.0,Calm,Calm,-,N/A,,Clear,0,2013-05-13 07:58:00
3:58 AM,43.2,43.0,99,30.17,10.0,SE,1.2,-,N/A,,Clear,140,2013-05-13 08:58:00
4:58 AM,44.4,44.1,99,30.18,10.0,East,1.2,-,N/A,,Mostly Cloudy,80,2013-05-13 09:58:00
5:58 AM,43.9,43.9,100,30.17,10.0,South,2.3,-,N/A,,Mostly Cloudy,170,2013-05-13 10:58:00
6:58 AM,47.7,46.2,95,30.18,10.0,SSE,4.6,-,N/A,,Partly Cloudy,150,2013-05-13 11:58:00
7:58 AM,52.5,44.4,74,30.18,10.0,SSE,6.9,-,N/A,,Scattered Clouds,150,2013-05-13 12:58:00
8:58 AM,58.1,43.9,59,30.18,10.0,SSE,9.2,-,N/A,,Clear,150,2013-05-13 13:58:00
9:58 AM,62.8,44.4,51,30.17,10.0,South,10.4,-,N/A,,Scattered Clouds,170,2013-05-13 14:58:00
10:58 AM,66.2,46.0,48,30.15,10.0,SSE,11.5,-,N/A,,Clear,160,2013-05-13 15:58:00
11:58 AM,69.8,45.9,42,30.13,10.0,South,11.5,-,N/A,,Clear,170,2013-05-13 16:58:00
12:58 PM,71.8,46.6,41,30.12,10.0,South,10.4,-,N/A,,Clear,170,2013-05-13 17:58:00
1:58 PM,73.8,48.7,41,30.09,10.0,South,11.5,-,N/A,,Clear,180,2013-05-13 18:58:00
3:58 PM,75.9,49.6,40,30.06,10.0,South,12.7,-,N/A,,Clear,180,2013-05-13 20:58:00
4:58 PM,76.3,52.3,43,30.04,10.0,SSW,12.7,-,N/A,,Clear,200,2013-05-13 21:58:00
5:58 PM,75.9,53.1,45,30.02,10.0,SSW,12.7,-,N/A,,Clear,210,2013-05-13 22:58:00
6:58 PM,73.9,54.9,51,30.00,10.0,SSW,10.4,-,N/A,,Clear,210,2013-05-13 23:58:00
7:58 PM,68.0,58.5,71,30.00,10.0,SSW,8.1,-,N/A,,Clear,200,2013-05-14 00:58:00
8:58 PM,64.8,57.0,76,30.00,10.0,South,6.9,-,N/A,,Clear,190,2013-05-14 01:58:00
9:58 PM,61.3,58.6,91,29.98,10.0,South,9.2,-,N/A,,Clear,190,2013-05-14 02:58:00
10:58 PM,59.7,59.0,97,29.98,10.0,South,10.4,-,N/A,,Clear,190,2013-05-14 03:58:00
11:58 PM,59.0,58.6,99,29.96,10.0,SSW,10.4,-,N/A,,Clear,200,2013-05-14 04:58:00